Tracking 28790 objects as of 18-Apr-2024
HD Live streaming from Space Station
objects crossing your sky now

IRIDIUM 33 DEB

Track IRIDIUM 33 DEB now!
10-day predictions


NORAD ID: 36490
Int'l Code: 1997-051WG
Perigee: 710.2 km
Apogee: 711.2 km
Inclination: 86.4 °
Period: 98.8 minutes
Semi major axis: 7081 km
RCS: 0.0086 m2 (small)
Launch date: September 14, 1997
Source: United States (US)
Launch site: TYURATAM MISSILE AND SPACE COMPLEX (TTMTR)

Note: This is SATELLITE DEBRIS
Your satellite tracking list
Your tracking list is empty




NASA's NSSDC Master Catalog

Two Line Element Set (TLE):
1 36490U 97051WG  24109.42351084  .00017193  00000-0  38322-2 0  9998
2 36490  86.3686 278.2340 0000739 356.0854   4.0349 14.56788983776387
Source of the keplerian elements: AFSPC